Regional Weather Roundup
Issued by NWS Grand Forks, ND

Home | Current Version | Previous Version | Graphics & Text | Print | Product List | Glossary On
Versions: 1 2 3 4 5 6 7 8 9 10 11 12 13 14 15 16 17 18 19 20 21 22 23 24 25 26 27 28 29 30 31 32 33 34 35 36 37 38 39 40 41 42 43 44 45 46 47 48 49 50
000
ASUS43 KFGF 300431
RWRFGF
PRAIRIE TO PINES  WEATHER ROUNDUP
NATIONAL WEATHER SERVICE EASTERN NORTH DAKOTA/GRAND FORKS ND
1100 PM CDT FRI JUL 29 2016

 **SATELLITE DATA USED TO AUGMENT SKY COVER AT AUTOMATED STATIONS**
 *****  WEATHER ACROSS EASTERN NORTH DAKOTA  *****

CITY           SKY/WX    TMP DP  RH WIND       PRES   REMARKS
GRAND FORKS    CLEAR     65  58  78 SE5       29.99R
GRAND FRKS AFB CLEAR     64  57  80 SE2       30.00R
DEVILS LAKE    CLOUDY    66  61  84 E6        30.00S
FARGO          CLOUDY    71  63  75 S8        30.01R
WAHPETON ARPT  CLOUDY    66  61  82 SE6       30.02S
$$

 ***** WEATHER ACROSS CENTRAL AND WESTERN NORTH DAKOTA  *****

CITY           SKY/WX    TMP DP  RH WIND       PRES   REMARKS
BISMARCK       CLEAR     66  62  87 E5        29.97F
MINOT          CLEAR     71  61  70 SE7       29.96R
JAMESTOWN      CLEAR     66  62  87 SE6       30.00S
MINOT AFB      CLEAR     63  57  82 SE6       29.94S
GARRISON         N/A     68  63  84 E7        29.96F
WILLISTON      CLEAR     69  59  70 E7        29.96S
DICKINSON      PTCLDY    64  59  83 SE7       29.97S
HETTINGER      CLEAR     67  58  72 E7        29.99S
$$

 *****  OTHER AIRPORT OBSERVATIONS IN OUR AREA  *****

CITY           SKY/WX    TMP DP  RH WIND       PRES   REMARKS
WALHALLA       FAIR      63  57  82 CALM      29.98S
GRAFTON AIRPOR FAIR      64  61  88 SE6       30.00S
VALLEY CITY AR FAIR      66  66 100 SE6       30.03S
CANDO          FAIR      61  61 100 SE6       30.01S
CAVALIER APRT  FAIR      59  57  94 S3        29.98S
GWINNER        MOCLDY    66  64  94 SE6       30.02S
SHEYENNE NWR     N/A     63  61  94 SE2       29.95S
ROLLA          FAIR      61  61 100 S3        30.00S
 ***** THE ABOVE OBSERVATIONS ARE NON NWS ARE NOT QUALITY
       CONTROLLED AND MAY MIS-REPORT RAIN FOR SNOW...
$$

  *****  WEATHER ACROSS NORTHERN MINNESOTA  *****

CITY           SKY/WX    TMP DP  RH WIND       PRES   REMARKS
FLAG ISLAND    CLOUDY    73  63  68 CALM      30.00R
WARROAD        PTCLDY    64  61  88 S2        30.01S
ROSEAU         CLOUDY    63  57  82 CALM      30.01S
HALLOCK        CLEAR     61  57  88 SE7       29.99S
THF RVR FALLS  CLEAR     62  57  83 CALM      30.02S
BAUDETTE       PTCLDY    61  56  83 CALM      30.02R
WASKISH        CLOUDY    61  57  88 CALM      30.03S
CROOKSTON      CLEAR     61  57  88 SE5       30.01S
STEPHEN NDAWN    N/A     63  57  82 S3          N/A
GREENBUSH NDAW   N/A     59  57  94 SE2         N/A
$$
  *****  WEATHER ACROSS CENTRAL AND WEST MINNESOTA  *****

CITY           SKY/WX    TMP DP  RH WIND       PRES   REMARKS
FOSSTON        CLEAR     55  48  76 CALM      30.04S
BEMIDJI        MOCLDY    66  60  80 S5        30.04R
PARK RAPIDS    PTCLDY    66  60  81 CALM      30.05R
ELBOW LAKE     FAIR      67  63  87 E5        30.05S
WADENA         NOT AVBL
DETROIT LAKES  CLEAR     68  63  83 SW3       30.05S
MOORHEAD       CLOUDY    68  64  88 S5        30.02S
FERGUS FALLS   PTCLDY    66  63  88 SE5       30.05S
MORRIS MN      PTCLDY    64  61  88 S3        30.04S
STAPLES        CLOUDY    64  57  77 S3        30.06S
$$
  *****  WEATHER ELSEWHERE ACROSS MINNESOTA  *****

CITY           SKY/WX    TMP DP  RH WIND       PRES   REMARKS
DULUTH         CLEAR     57  51  80 CALM      30.08R
INTRNTL FALLS  CLOUDY    63  58  83 CALM      30.03R
ELY            CLEAR     59  48  67 CALM      30.08S
CLOQUET        CLEAR     54  50  87 CALM      30.08S
WHEATON        CLEAR     64  63  94 SE5       30.05S
BRAINERD       CLOUDY    64  57  78 SE3       30.06S
HIBBING        CLEAR     52  51  97 CALM      30.08R
ALEXANDRIA     MOCLDY    69  59  70 S5        30.07R
SAINT CLOUD    PTCLDY    61  59  93 N3        30.05S
MINNEAPOLIS    CLOUDY    69  56  62 N5        30.03S
$$

  *****  WEATHER ACROSS SOUTH DAKOTA  *****

CITY           SKY/WX    TMP DP  RH WIND       PRES   REMARKS
SIOUX FALLS    CLOUDY    66  55  67 E5        30.05S
BROOKINGS      CLEAR     65  57  75 SE7       30.06S
WATERTOWN      CLEAR     68  57  68 SE8       30.05S
HURON          PTCLDY    69  55  60 SE10      30.02R
SISSETON         N/A     67  62  84 S5        30.02S
ABERDEEN       CLOUDY    67  61  81 SE7       30.00S
MITCHELL       CLEAR     66  56  70 SE7       30.04R
PIERRE         CLEAR     70  57  63 SE10      29.98S
MOBRIDGE       PTCLDY    73  55  53 SE10      29.96S
RAPID CITY     CLEAR     61  55  81 CALM      30.02R
$$

  *****  SOME WEATHER IN NEARBY STATES *****

CITY           SKY/WX    TMP DP  RH WIND       PRES   REMARKS
GLASGOW MT     CLEAR     66  58  75 E10       29.94R
GREAT FALLS MT CLEAR     73  46  38 E9        29.95S
CHEYENNE WY    PTCLDY    61  54  77 SE9       30.20R
SCOTTSBLUFF NE PTCLDY    61  58  90 E7        30.09R
OMAHA NE       CLOUDY    71  61  70 CALM      30.04R
DES MOINES IA  PTCLDY    69  64  84 N6        29.99F
DAVENPORT IA   CLOUDY    68  66  93 NE7       29.97R
CHICAGO IL     MOCLDY    70  67  90 N7        29.95S
EAU CLAIRE WI  CLEAR     65  62  90 CALM      30.02F
LA CROSSE WI   MOCLDY    68  65  90 N3        30.01S
$$

  *****  SOME NATIONAL WEATHER *****

CITY           SKY/WX    TMP DP  RH WIND       PRES   REMARKS
LA GUARDIA NY  MOCLDY    79  69  71 S8        29.92S
RALEIGH NC     PTCLDY    77  71  82 CALM      29.97S
ATLANTA GA     PTCLDY    81  71  71 NW5       30.03S
NEW ORLEANS LA PTCLDY    82  74  76 CALM      30.02R
OKLAHOMA CITY  CLOUDY    77  69  76 E7        30.01R
ALBUQUERQUE NM PTCLDY    72  58  61 N3        30.13R
SALT LAKE CITY PTCLDY    88  39  17 SE5       29.94R
LOS ANGELES CA CLEAR     70  62  76 SW9       29.80R
BOISE ID       CLEAR     88  43  20 SW5       29.81R
SEATTLE WA     PTCLDY    79  58  48 N9        29.89S
$$

*** WEATHER ACROSS MANITOBA...SASKATCHEWAN AND ONTARIO ***
                ***ONTARIO***

CITY           SKY/WX    TMP DP  RH WIND       PRES   REMARKS
GERALDTON      CLEAR     61  50  67 SW5       30.07R
THUNDER BAY    CLEAR     57  52  82 NW2       30.07S
SIOUX LOOKOUT  PTCLDY    54  54 100 CALM      30.03S
TORONTO        MOCLDY    72  55  56 NE14      30.01
BIG TROUT LK   CLEAR     63  57  82 SW5       29.95F
PICKLE LAKE    NOT AVBL
DRYDEN         CLEAR     66  59  77 E3        30.03S
KENORA         PTCLDY    72  54  53 S3        30.02S
$$
                *** MANITOBA***

CITY           SKY/WX    TMP DP  RH WIND       PRES   REMARKS
BRANDON        MOCLDY    66  59  77 SE6       29.95F
DAUPHIN        CLEAR     61  55  82 S8        29.91S
ISLAND LAKE    PTCLDY    64  59  82 SE8       29.93S
PILOT MOUND      N/A     61  57  88 SE7         N/A
THE PAS        MOCLDY    64  59  82 SE3       29.84F
THOMPSON       CLOUDY    63  61  94 E3        29.87S
WINNIPEG       PTCLDY    66  55  68 S6        29.97S
LYNN LAKE      MOCLDY    61  59  94 MISG      29.85F
CHURCHILL      MOCLDY    57  48  72 SE8       30.00F
GILLAM         LGT RAIN  57  48  72 E6        29.95
$$
                ***SASKATCHEWAN***

CITY           SKY/WX    TMP DP  RH WIND       PRES   REMARKS
ESTEVAN        PTCLDY    61  59  94 SE6       29.95S
KINDERSLEY     PTCLDY    64  59  82 SE8       29.89F
LLOYDMINSTER   PTCLDY    66  57  72 SW7       29.85S
PRINCE ALBERT  PTCLDY    64  61  88 S3        29.84R
REGINA         PTCLDY    61  57  88 S7        29.92
YORKTON        CLEAR     66  61  82 S7        29.90S
N. BATTLEFORD  CLEAR     63  63 100 SE5       29.87S
LA RONGE       PTCLDY    66  63  88 SE5       29.81R
SASKATOON      PTCLDY    63  61  94 S7        29.88F
SWIFT CURRENT  CLEAR     63  59  88 S3        29.94S
$$
NOTE: THESE ARE AUTOMATED STATIONS WITH LIMITED QUALITY CONTROL
      "FAIR" INDICATES FEW OR NO CLOUDS BELOW 12,000 FEET WITH NO
      SIGNIFICANT WEATHER AND/OR OBSTRUCTIONS TO VISIBILITY.
      SKY/WX - SKY CONDITION AND SIGNIFICANT WEATHER.
      TMP - AIR TEMPERATURE.    DP   - DEWPOINT TEMPERATURE.
      RH  - RELATIVE HUMIDITY.  PRES - PRESSURE.
      HX  - HEAT INDEX.         WCI  - WIND CHILL INDEX.
$



USA.gov is the U.S. government's official web portal to all federal, state and local government web resources and services.